Miscellaneous Local Product
Issued by NWS North Platte, NE

Home | Current Version | Previous Version | Text Only | Print | Product List | Glossary On
Versions: 1 2 3 4 5 6 7 8 9 10 11 12 13 14 15 16 17 18 19 20 21 22 23 24 25 26 27 28 29 30 31 32 33 34 35 36 37 38 39 40 41 42 43 44 45 46 47 48 49 50
968
AXUS43 KLBF 272010
MISLBF


WESTERN AND NORTH CENTRAL NEBRASKA HOURLY WEATHER ROUNDUP
NATIONAL WEATHER SERVICE NORTH PLATTE NE
300 PM CDT TUE SEP 27 2016

NOTE: "FAIR" INDICATES FEW OR NO CLOUDS BELOW 12,000 FEET WITH NO
SIGNIFICANT WEATHER AND/OR OBSTRUCTIONS TO VISIBILITY.

NOTE: STATIONS NOT REPORTING VARIABLES SUCH AS SKY/WEATHER OR
PRESSURE ARE PROVIDED BY RAWS AND APRS NETWORKS AND ARE NOT UNDER
NATIONAL WEATHER SERVICE QUALITY CONTROL.

...OBSERVATIONS IN AND NEAR THE EASTERN PANHANDLE OF NEBRASKA...

CITY           SKY/WX    TMP DP  RH WIND       PRES   REMARKS
PINE RIDGE     SUNNY     83  38  20 N9G17     30.02F
CHADRON        SUNNY     83  37  19 NW12      30.02F
ALLIANCE       SUNNY     82  33  17 NW6       30.05F
SIDNEY         SUNNY     82  36  19 MISG      30.11F
CRESCENT LAKE    N/A     82  37  20 N7G15       N/A
$$

...OBSERVATIONS IN NORTHERN NEBRASKA AND FAR SOUTHERN SOUTH DAKOTA...

CITY           SKY/WX    TMP DP  RH WIND       PRES   REMARKS
WINNER         FAIR      82  41  23 W9G18     29.93F
VALENTINE      SUNNY     82  39  21 NW12      29.96F
THEDFORD       SUNNY     83  45  26 NW7G20    29.99F
AINSWORTH      SUNNY     79  44  28 NW16G22   29.97F
O`NEILL        SUNNY     78  39  24 W12G17    29.95F
ORD            SUNNY     80  43  26 W8G23     29.93F
BROKEN BOW     SUNNY     84  44  24 NW14G26   29.97F
VALENTINE NWR    N/A     80  43  27 NW10G20     N/A
BUTTE            N/A     76  46  34 W10G18      N/A
HALSEY           N/A     83  44  25 NW8G16      N/A
EWING            N/A     76  47  35 W8          N/A
$$

...OBSERVATIONS IN SOUTHWEST NEBRASKA AND FAR NORTHEAST COLORADO...

CITY           SKY/WX    TMP DP  RH WIND       PRES   REMARKS
WRAY           FAIR      86  30  13 W3        30.08F
HOLYOKE        FAIR      86  34  15 W9        30.07F
IMPERIAL       SUNNY     83  37  19 W8G18     30.05F
OGALLALA       SUNNY     85  40  20 W8        30.03F
NORTH PLATTE   SUNNY     84  44  24 W15       30.00F
MCCOOK         SUNNY     84  43  23 W14       30.01F
LEXINGTON      SUNNY     82  45  26 NW12      29.99F
STAPLETON        N/A     85  44  23 CALM        N/A
GOTHENBURG       N/A     80  42  25 NW7         N/A
CALLAWAY         N/A     80  47  30 W12         N/A
$$

...OBSERVATIONS IN CENTRAL LINCOLN COUNTY AREA...

CITY           SKY/WX    TMP DP  RH WIND       PRES   REMARKS
N.P. AIRPORT   SUNNY     84  44  24 W15       30.00F
N.P. DOWNTOWN    N/A     83  47  28 SW3G12      N/A
N.P. SOUTHEAST   N/A     82  45  26 W5          N/A
N.P. HILLCREST   N/A     82  45  26 W12G20      N/A
$$

...SOME OBSERVATIONS FROM AROUND THE REGION...

CITY           SKY/WX    TMP DP  RH WIND       PRES   REMARKS
DENVER         MOSUNNY   79  29  16 E6        30.17F
LARAMIE        SUNNY     70  32  24 VRB7      30.28F
CHEYENNE       SUNNY     79  21  11 N9        30.20F
SCOTTSBLUFF    SUNNY     81  39  22 VRB6      30.08F
RAPID CITY     SUNNY     82  44  26 N13       30.00F
BISMARCK       SUNNY     71  40  32 VRB3      29.95F
PIERRE         SUNNY     79  43  27 NW15      29.91F
SIOUX FALLS    MOSUNNY   73  43  33 NW17G28   29.89F
OMAHA          SUNNY     78  43  28 W12       29.91F
GRAND ISLAND   SUNNY     80  44  27 NW5       29.96F
KANSAS CITY    SUNNY     77  53  43 W8        29.93F
WICHITA        SUNNY     81  53  37 VRB6      29.99F
OKLAHOMA CITY  MOSUNNY   79  46  31 SW7       30.05F
DALLAS         CLOUDY    78  46  32 N8        30.05F
AMARILLO       SUNNY     81  38  21 CALM      30.15F
DODGE CITY     SUNNY     88  37  16 W9        30.04F
HAYS           SUNNY     86  46  25 NW7       30.00F
GOODLAND       SUNNY     83  36  18 W9        30.07F
$$




USA.gov is the U.S. government's official web portal to all federal, state and local government web resources and services.